CAPE
0 0 0 0 0 0 0 0 0 0 0 0 19 28 105 257 163 104 157 166 140 177 251 213 392 483 405 394 740 1200 1404 1658 1675 1622 1588 1571 1461 1384 1268 1225 1196 995 838 853
0 0 0 0 0 0 0 0 0 0 0 14 33 27 54 93 79 49 62 130 174 189 196 194 216 323 316 347 596 820 1096 1286 1622 1668 1533 1474 1532 1467 1300 998 1006 1246 938 769
0 0 0 0 0 0 0 0 0 0 0 25 38 28 103 78 84 81 102 136 119 149 170 176 195 200 247 314 441 560 818 932 1301 1703 1523 1460 1391 1409 1260 1394 1585 1137 1046 925
0 0 0 0 0 0 0 0 0 0 0 0 34 0 69 135 157 206 237 256 261 214 182 184 204 256 282 283 398 586 751 964 1284 1516 1504 1346 910 581 321 460 946 931 606 178
0 0 0 0 0 0 0 0 0 0 0 0 17 1 23 93 137 196 267 312 392 387 258 253 235 303 307 331 525 694 931 1257 1510 1605 1632 1383 1006 425 78 111 701 582 0 0
0 0 0 0 0 0 0 0 0 0 0 0 0 0 0 28 82 104 145 207 422 420 519 415 290 325 434 546 771 950 1091 1498 1656 1730 1905 1507 1123 260 0 89 258 0 0 0
0 0 0 0 0 0 0 0 0 0 0 0 0 0 0 4 40 54 65 91 267 416 595 644 599 514 597 673 996 1132 1229 1492 1490 1750 1803 1431 1201 80 0 0 0 0 0 0
0 0 0 0 0 0 0 0 0 0 0 0 0 0 0 0 17 38 51 46 144 293 375 677 772 724 700 723 1067 1302 1445 1474 1321 1445 1361 1240 263 0 0 0 0 0 0 0
0 0 0 0 0 0 0 0 0 0 0 0 0 0 0 0 0 6 17 13 74 183 212 595 805 763 819 848 1083 1298 1529 1637 1185 950 885 302 0 0 0 0 0 0 0 0
0 0 0 0 0 0 0 0 0 0 0 0 0 0 0 0 0 0 0 9 13 102 162 423 764 670 903 958 1071 1327 1538 1617 1205 658 492 65 0 0 0 1 5 0 0 0
0 0 0 0 0 0 0 0 0 0 0 0 0 0 0 0 0 0 0 2 7 45 110 257 507 535 707 989 1260 1263 1486 1548 1219 711 397 52 0 0 0 6 7 3 0 0
0 0 0 0 0 0 0 0 0 0 0 0 0 0 0 0 0 0 6 11 4 26 85 182 333 445 481 700 1030 1117 1371 1299 1103 804 523 173 0 0 0 0 0 0 0 0
0 0 0 0 0 0 0 0 0 0 0 0 0 0 0 0 0 0 0 0 0 5 42 130 247 376 442 631 884 1024 1355 1257 1075 804 654 266 1 43 44 18 1 0 0 0
0 0 0 0 0 0 0 0 0 0 0 0 0 0 0 0 0 0 25 14 3 0 0 15 166 323 410 471 864 1111 1355 1455 1238 951 816 498 36 37 233 189 48 5 4 0
0 0 0 0 0 0 0 0 0 0 0 0 0 0 0 0 0 0 2 3 0 7 0 0 20 128 275 384 717 1063 1355 1560 1389 1151 988 769 154 28 345 319 64 4 0 6
0 0 0 0 0 0 0 0 0 0 0 0 0 0 0 0 0 0 0 0 0 0 0 0 1 34 114 254 536 834 1235 1529 1426 1194 1210 665 250 20 326 152 0 0 0 2
0 0 0 0 0 0 0 0 0 0 0 0 0 0 0 0 0 0 0 0 0 0 6 2 7 33 107 201 468 720 1083 1446 1403 1335 906 834 516 67 163 35 15 4 1 5
18 0 0 0 0 0 0 0 0 0 9 3 0 0 0 0 0 1 0 0 0 4 55 179 174 194 289 459 624 769 1064 1321 1295 1161 847 590 463 241 208 56 113 76 90 45
1 0 0 0 0 0 11 43 52 32 27 9 9 0 0 0 0 1 0 3 55 25 10 27 76 22 145 504 890 997 1018 1141 1148 868 554 550 368 357 193 221 140 185 187 177
0 1 0 0 0 4 13 47 21 1 33 9 0 0 4 0 2 26 0 2 1 0 2 2 6 48 163 279 938 1122 1000 974 1040 918 718 634 266 307 197 302 194 309 276 236
2 49 16 4 9 47 1 1 9 79 14 0 0 0 22 42 1 0 2 0 26 86 159 151 131 86 161 395 529 892 936 1058 972 744 694 682 352 283 240 188 57 4 87 254
7 154 93 96 34 49 1 78 64 18 0 0 0 0 0 0 0 0 1 7 5 1 0 0 237 700 589 610 619 723 963 749 597 569 545 342 158 128 49 48 29 1 0 21
23 97 33 0 3 0 0 0 0 0 0 0 0 2 9 7 0 0 0 0 10 0 0 0 0 111 538 928 805 788 734 549 529 471 302 27 1 0 0 0 9 21 0 0
11 57 0 0 0 0 0 0 0 0 0 0 0 0 0 0 0 0 0 0 79 28 5 153 261 262 583 832 766 633 496 376 387 184 111 20 10 11 0 0 2 98 129 155
26 73 6 0 0 0 0 0 0 0 0 0 0 0 0 0 39 71 12 41 9 224 237 520 596 693 706 524 369 165 86 148 124 55 4 0 0 0 27 11 45 118 16 12
4 382 66 0 0 0 0 0 0 0 0 0 0 0 0 0 0 40 62 537 597 626 598 669 526 620 377 196 16 14 1 6 1 0 0 0 0 1 1 0 0 0 0 0
CIN
-0 -0 -0 -0 -0 -0 -0 -0 -0 -0 -1 -0 -127 -168 -236 -307 -277 -243 -241 -223 -216 -214 -204 -220 -170 -137 -153 -152 -102 -56 -35 -29 -24 -26 -27 -21 -29 -25 -25 -26 -24 -26 -27 -28
-0 -0 -0 -0 -0 -0 -0 -0 -0 -0 -0 -117 -166 -141 -255 -291 -297 -267 -270 -265 -260 -240 -254 -263 -230 -175 -166 -156 -126 -103 -66 -45 -43 -46 -43 -29 -24 -20 -19 -23 -21 -17 -25 -23
-0 -0 -0 -0 -0 -0 -0 -0 -0 -0 -0 -159 -130 -133 -234 -273 -285 -267 -285 -280 -284 -254 -259 -260 -268 -241 -188 -185 -178 -162 -128 -96 -95 -73 -71 -54 -41 -20 -18 -15 -12 -23 -15 -15
-0 -0 -0 -0 -0 -0 -0 -0 -0 -0 -0 -0 -131 -0 -168 -238 -240 -258 -265 -266 -269 -259 -241 -249 -261 -237 -225 -202 -181 -152 -144 -132 -115 -95 -86 -100 -115 -115 -140 -92 -44 -29 -41 -130
-0 -0 -0 -0 -0 -0 -0 -0 -0 -0 -0 -0 -150 -26 -71 -212 -218 -269 -297 -264 -249 -242 -246 -241 -250 -239 -229 -216 -181 -150 -142 -122 -108 -97 -85 -114 -135 -183 -284 -227 -84 -78 -0 -0
-0 -0 -0 -0 -0 -0 -0 -0 -0 -0 -0 -0 -0 -0 -0 -126 -117 -181 -302 -284 -262 -261 -236 -223 -228 -219 -205 -209 -154 -143 -125 -108 -100 -92 -84 -101 -133 -245 -0 -241 -179 -0 -0 -0
-0 -0 -0 -0 -0 -0 -0 -0 -0 -0 -0 -0 -0 -0 -0 -80 -124 -136 -202 -283 -291 -270 -235 -219 -218 -226 -211 -195 -162 -157 -151 -121 -119 -103 -98 -123 -130 -286 -0 -0 -0 -0 -0 -0
-0 -0 -0 -0 -0 -0 -0 -0 -0 -0 -0 -0 -0 -0 -0 -0 -159 -170 -265 -259 -283 -278 -298 -264 -262 -252 -240 -224 -200 -167 -171 -157 -162 -135 -140 -147 -271 -0 -0 -0 -0 -0 -0 -0
-0 -0 -0 -0 -0 -0 -0 -0 -0 -0 -0 -0 -0 -0 -0 -0 -0 -179 -219 -283 -306 -285 -328 -316 -285 -277 -247 -222 -216 -213 -196 -171 -195 -197 -196 -265 -0 -0 -0 -0 -0 -0 -0 -0
-0 -0 -0 -0 -0 -0 -0 -0 -0 -0 -0 -0 -0 -0 -0 -0 -0 -0 -11 -240 -268 -291 -362 -353 -298 -295 -266 -241 -247 -220 -207 -204 -231 -249 -248 -330 -0 -0 -0 -111 -384 -0 -0 -0
-0 -0 -0 -0 -0 -0 -0 -0 -0 -0 -0 -0 -0 -0 -0 -0 -0 -0 -9 -135 -183 -277 -340 -338 -324 -289 -287 -277 -268 -250 -231 -222 -242 -264 -304 -384 -0 -0 -0 -366 -374 -318 -0 -0
-0 -0 -0 -0 -0 -0 -0 -0 -0 -0 -0 -0 -0 -0 -0 -0 -0 -0 -216 -248 -252 -255 -314 -318 -317 -315 -344 -356 -315 -286 -274 -273 -283 -299 -319 -343 -3 -0 -0 -0 -0 -0 -0 -0
-0 -0 -0 -0 -0 -0 -0 -0 -0 -0 -0 -0 -0 -0 -0 -0 -0 -0 -0 -0 -0 -205 -304 -352 -336 -341 -333 -390 -387 -322 -292 -305 -330 -329 -307 -336 -10 -311 -319 -305 -67 -0 -0 -0
-0 -0 -0 -0 -0 -0 -0 -0 -0 -0 -0 -0 -0 -0 -0 -0 -0 -0 -191 -281 -103 -0 -0 -338 -355 -332 -326 -374 -402 -364 -303 -309 -335 -342 -288 -288 -354 -335 -237 -232 -267 -314 -338 -0
-0 -0 -0 -0 -0 -0 -0 -0 -0 -0 -0 -0 -0 -0 -0 -0 -0 -0 -35 -27 -0 -267 -0 -0 -299 -280 -335 -355 -415 -400 -311 -303 -341 -325 -269 -258 -350 -378 -220 -205 -276 -253 -0 -303
-0 -0 -0 -0 -0 -0 -0 -0 -0 -0 -0 -0 -0 -0 -0 -0 -0 -0 -0 -0 -0 -0 -0 -0 -154 -278 -295 -316 -335 -352 -360 -343 -341 -306 -259 -314 -332 -412 -225 -209 -4 -0 -0 -288
-0 -0 -0 -0 -0 -0 -0 -0 -0 -0 -0 -0 -0 -0 -0 -0 -0 -0 -0 -0 -0 -0 -204 -71 -174 -227 -276 -311 -345 -363 -346 -353 -361 -340 -299 -237 -183 -292 -250 -264 -214 -228 -115 -260
-136 -0 -0 -0 -0 -0 -0 -0 -0 -68 -155 -167 -0 -0 -0 -0 -0 -37 -0 -0 -0 -177 -170 -167 -177 -205 -220 -278 -338 -356 -364 -323 -344 -325 -283 -245 -205 -221 -235 -245 -158 -164 -210 -211
-256 -0 -0 -0 -0 -0 -69 -139 -96 -28 -96 -213 -87 -0 -0 -0 -0 -184 -0 -84 -156 -178 -213 -211 -218 -192 -243 -242 -245 -290 -357 -362 -336 -327 -306 -198 -168 -206 -217 -165 -114 -124 -175 -140
-70 -180 -18 -0 -0 -26 -122 -288 -430 -26 -84 -257 -28 -21 -219 -7 -80 -238 -2 -317 -246 -0 -282 -145 -237 -261 -274 -259 -256 -274 -339 -356 -318 -328 -282 -230 -229 -185 -191 -125 -101 -117 -155 -59
-99 -172 -173 -199 -107 -198 -203 -62 -370 -26 -184 -0 -0 -0 -301 -301 -121 -0 -162 -0 -278 -266 -202 -219 -161 -151 -170 -235 -235 -231 -335 -274 -307 -314 -278 -207 -235 -250 -238 -182 -315 -283 -153 -60
-205 -80 -135 -235 -182 -102 -288 -372 -128 -180 -0 -0 -0 -0 -0 -0 -0 -0 -151 -366 -131 -113 -0 -0 -207 -133 -201 -239 -232 -242 -291 -390 -363 -299 -240 -263 -290 -233 -238 -207 -255 -79 -26 -18
-82 -119 -57 -1 -397 -0 -0 -0 -0 -0 -0 -0 -0 -469 -406 -384 -0 -0 -0 -0 -363 -0 -0 -0 -0 -249 -245 -286 -261 -190 -331 -394 -344 -279 -259 -318 -88 -0 -0 -0 -127 -79 -10 -0
-162 -95 -0 -0 -0 -0 -0 -0 -0 -0 -0 -0 -0 -0 -0 -0 -0 -0 -0 -0 -237 -285 -36 -288 -304 -235 -269 -347 -391 -377 -381 -372 -278 -267 -271 -273 -197 -174 -0 -0 -21 -169 -133 -88
-200 -136 -68 -0 -0 -0 -0 -0 -0 -0 -0 -0 -0 -0 -0 -0 -229 -194 -84 -216 -221 -167 -177 -229 -242 -294 -366 -423 -381 -421 -400 -313 -245 -164 -89 -0 -0 -0 -114 -96 -95 -168 -172 -70
-87 -116 -165 -0 -0 -0 -0 -0 -0 -0 -0 -0 -0 -0 -0 -0 -0 -82 -97 -192 -188 -173 -224 -217 -378 -328 -344 -364 -335 -428 -55 -197 -79 -0 -0 -0 -0 -23 -100 -0 -0 -0 -0 -0
Wind_Speed
16 14 28 29 8 7 35 38 27 24 21 4 9 7 13 17 17 17 18 20 22 24 24 22 23 23 23 23 23 24 22 21 19 17 16 13 13 10 10 11 10 7 6 6
19 36 27 21 16 9 27 27 29 28 17 15 8 3 8 13 16 17 18 19 21 20 21 22 22 23 23 24 25 23 22 21 19 17 14 11 10 9 8 7 6 6 7 8
21 25 20 19 16 11 19 34 24 15 10 18 8 16 2 8 7 12 10 15 15 17 19 18 21 21 22 23 24 22 22 21 19 16 13 11 12 12 11 9 9 8 8 8
31 39 24 23 24 19 38 29 29 14 8 14 9 15 14 8 10 9 10 15 15 17 17 18 18 19 19 22 21 19 21 20 17 14 11 10 11 12 12 11 10 10 10 9
29 27 29 25 17 15 35 20 27 17 11 16 12 16 24 11 18 22 19 16 14 14 17 18 18 17 17 14 17 17 17 16 12 11 9 9 9 10 12 13 13 12 12 12
36 29 32 34 34 20 27 24 24 25 14 16 14 15 9 12 24 25 20 19 16 15 17 16 17 13 11 9 11 12 12 12 9 7 7 6 7 9 10 11 11 13 14 13
36 39 34 29 40 28 27 25 28 27 23 30 10 11 15 19 26 26 24 23 22 18 19 17 15 14 12 13 12 11 12 12 9 7 6 5 4 7 8 7 9 11 13 14
37 43 36 30 34 31 28 25 24 25 26 26 15 11 19 23 23 26 21 23 21 21 23 23 19 15 15 15 16 16 16 17 12 11 11 7 4 4 6 7 8 9 11 13
37 46 33 36 33 29 32 33 25 31 25 25 22 23 30 18 7 15 20 18 22 23 21 22 22 22 20 18 19 19 19 18 17 16 13 9 5 4 4 5 7 8 10 11
38 36 37 39 35 36 35 25 30 27 31 35 27 22 17 12 11 5 16 23 23 20 18 17 22 23 24 25 23 20 19 19 17 16 13 10 7 2 1 2 3 6 8 10
41 37 39 31 37 39 31 33 30 30 30 31 34 30 17 19 15 5 17 24 20 20 18 19 23 23 26 26 22 19 17 16 15 15 12 10 7 4 2 2 3 4 7 10
41 41 47 46 31 30 32 38 34 35 32 28 29 30 17 16 14 7 12 14 17 16 16 16 21 23 24 25 22 22 20 17 16 14 13 12 9 7 4 4 4 5 6 9
36 42 44 44 41 36 37 33 32 30 27 28 27 27 21 17 12 6 8 13 15 18 14 15 18 23 24 22 20 21 19 21 17 15 15 13 12 9 8 6 5 4 6 7
32 37 46 47 40 31 33 32 28 28 30 27 28 24 19 16 12 8 9 10 14 19 19 15 14 19 23 19 16 16 19 18 17 17 17 16 15 12 10 8 6 6 6 6
35 39 39 50 45 35 32 32 30 30 26 28 24 23 20 13 10 9 10 9 10 17 16 13 13 14 17 14 11 12 15 16 18 19 19 19 15 13 11 9 7 8 7 6
30 39 38 43 43 39 41 41 33 31 24 25 24 23 15 10 10 10 11 11 12 13 18 14 12 9 10 11 11 12 14 14 15 20 23 16 16 13 13 10 9 8 8 7
23 34 35 44 36 36 38 34 30 28 29 22 26 22 19 13 12 12 14 15 16 14 11 10 9 8 7 9 10 12 13 12 15 18 16 21 18 17 14 11 11 9 8 8
24 32 34 38 34 41 31 24 16 16 22 21 22 20 15 15 13 14 13 16 14 11 8 6 5 5 6 8 8 9 9 12 16 16 15 19 17 16 11 10 10 9 11 11
23 22 29 35 35 28 26 20 17 12 17 19 24 28 30 26 21 24 13 10 11 8 4 3 3 7 10 10 10 9 8 9 13 14 13 11 18 12 10 10 9 11 15 16
20 15 28 28 30 31 28 25 22 26 25 22 19 19 15 13 13 17 12 10 8 6 6 5 10 15 15 14 15 11 11 11 12 13 13 13 13 10 10 9 9 13 18 20
25 21 18 27 27 23 21 22 19 19 20 17 15 11 9 13 11 9 4 8 11 13 11 16 17 18 18 17 18 12 11 9 10 10 9 10 12 13 12 12 14 18 23 24
21 21 20 20 24 24 21 18 23 15 5 5 5 7 6 8 10 10 9 9 12 17 22 23 26 25 24 19 19 17 15 12 10 8 8 9 10 10 10 11 12 14 19 43
25 20 22 19 15 16 15 4 3 3 1 5 6 9 9 11 13 15 17 19 21 27 28 29 28 34 26 21 18 17 16 13 9 6 8 9 10 10 11 13 15 14 18 12
29 26 15 14 9 8 2 2 4 4 7 10 13 13 13 13 17 21 24 27 29 29 30 31 34 33 28 20 18 15 13 11 9 6 9 10 14 12 15 18 15 16 12 12
22 18 21 13 13 7 5 6 6 7 10 13 15 19 20 23 25 28 34 38 39 35 34 33 28 29 24 18 14 10 6 4 7 11 9 11 13 16 15 13 20 16 15 16
21 22 20 22 17 12 15 14 13 14 17 17 20 23 23 24 24 23 26 25 26 27 20 21 19 22 17 11 8 8 8 8 6 5 7 13 15 19 19 11 13 17 18 17
Wind_Direction
234 199 173 170 246 276 168 199 171 169 250 153 137 84 126 137 139 142 152 159 165 170 167 162 163 162 161 162 162 164 162 163 155 153 153 149 156 140 145 158 157 135 116 66
236 185 178 241 250 260 225 234 185 250 262 268 293 343 128 140 147 145 145 152 159 163 162 162 161 161 161 164 166 161 164 162 158 149 136 117 118 121 123 106 97 89 78 59
223 237 232 239 245 245 253 226 255 247 258 275 283 287 190 163 148 156 152 159 158 160 163 162 162 161 161 162 163 161 160 158 152 142 118 78 50 45 59 75 60 71 77 63
244 234 237 240 246 251 231 248 255 298 173 184 256 187 186 191 183 180 179 172 169 166 164 162 163 162 161 164 160 156 157 155 148 132 113 95 85 76 65 52 59 71 66 51
240 234 232 238 233 248 238 265 267 283 184 272 186 281 202 186 186 194 188 185 182 177 172 167 167 164 163 157 157 157 155 153 140 131 110 92 69 59 43 41 56 56 47 39
241 247 241 242 243 252 254 266 277 283 284 198 195 192 279 177 195 200 193 189 187 187 184 180 173 175 172 171 165 160 162 162 155 144 127 100 50 39 37 39 45 41 38 35
240 242 245 245 240 251 254 260 266 271 275 262 218 206 204 189 198 198 189 186 184 182 186 188 183 181 180 177 183 184 180 181 179 176 159 135 77 46 44 52 51 43 36 30
239 239 238 240 241 245 251 253 260 270 275 276 286 250 197 204 203 200 191 187 182 181 182 185 188 192 190 183 180 183 184 184 186 180 171 154 108 61 52 59 47 43 39 38
240 242 245 244 245 245 249 254 267 270 280 281 279 282 276 291 206 193 191 186 186 185 185 186 183 184 186 188 187 186 186 187 186 183 178 170 148 104 60 68 53 45 34 30
246 249 245 245 246 249 249 257 261 268 266 270 277 283 288 290 302 221 186 185 187 185 184 185 186 188 190 192 192 192 193 193 191 191 192 191 185 184 75 54 36 27 23 19
242 246 244 243 241 241 248 251 259 269 268 268 276 276 283 297 298 214 179 183 180 177 177 179 184 186 189 191 193 198 201 203 202 204 210 211 216 219 231 339 5 11 10 4
240 243 243 242 247 250 251 252 256 259 266 271 273 273 290 290 307 200 179 179 174 175 173 180 183 186 188 193 194 197 201 207 215 219 220 218 222 225 241 290 318 342 352 356
235 239 240 245 246 248 248 254 258 261 265 263 264 275 284 289 292 191 183 176 175 181 185 188 188 190 193 195 198 202 203 206 209 216 219 224 224 234 247 263 286 307 333 347
231 240 239 240 241 242 247 254 257 253 255 263 269 275 282 281 267 266 189 193 183 182 184 182 184 191 197 203 210 210 212 214 215 217 218 218 219 231 240 239 253 281 303 327
231 240 242 240 243 245 251 259 259 251 254 256 267 272 273 264 250 217 193 195 187 180 181 186 193 198 201 209 229 232 227 221 223 224 222 219 228 231 233 236 256 276 285 296
236 241 240 242 242 244 252 258 261 252 248 262 269 269 271 246 271 251 199 194 197 186 183 188 195 211 214 223 230 225 230 223 225 228 224 230 234 241 237 242 261 273 276 285
257 239 240 242 243 242 249 258 262 251 254 258 263 269 279 265 249 229 207 204 201 193 193 193 202 209 230 256 264 240 232 232 229 226 235 217 220 223 226 246 264 276 280 288
276 248 242 240 239 242 252 263 255 253 255 260 275 281 282 275 232 223 220 201 198 202 215 226 232 259 270 297 291 275 252 242 246 246 239 241 249 215 246 246 250 269 294 289
270 264 239 237 236 248 248 250 256 247 271 276 281 272 279 284 283 269 246 225 203 207 225 263 314 331 337 329 320 307 284 257 249 257 247 239 218 227 238 243 258 279 296 300
270 284 241 239 234 246 242 259 266 261 262 275 279 281 295 309 279 284 272 259 255 276 283 294 316 326 332 335 327 324 307 282 252 248 243 228 228 244 256 251 269 297 295 297
263 267 263 247 239 250 257 264 268 257 266 282 272 287 303 309 316 327 304 287 293 298 296 302 311 318 325 330 330 328 320 284 264 267 250 239 273 278 280 286 306 328 318 299
269 261 265 259 242 243 278 259 254 259 285 308 328 340 357 359 359 353 343 325 316 309 306 311 311 313 313 322 320 320 319 321 309 283 264 266 277 280 273 282 302 319 339 291
248 265 249 259 244 256 259 241 257 285 336 332 357 351 345 341 331 329 318 318 314 312 304 307 312 306 317 305 304 307 318 327 323 296 281 295 295 299 310 314 308 317 306 290
245 251 259 250 255 253 290 3 332 339 345 336 334 332 332 321 322 316 312 307 311 310 307 311 311 311 313 311 303 308 319 333 342 336 308 304 302 300 301 322 315 324 330 324
258 244 242 236 235 245 311 308 314 330 334 329 330 327 320 310 307 303 297 300 295 304 310 313 317 316 315 320 315 320 324 1 2 327 346 338 322 314 322 342 317 323 330 325
270 248 243 247 243 255 271 285 302 312 318 319 322 317 322 323 324 325 317 320 316 320 325 330 331 323 323 326 333 339 328 14 12 352 1 340 321 302 311 312 321 334 331 333